Zurück zum Katalog

STARLINK-33774

AktivKommunikationVLEO
NORAD 63721·PAYLOAD·🇺🇸 United States

Gestartet Apr 28, 2025 von Vandenberg Space Force Base

Loading…

Nächste Überflüge (nächste 24 Stunden)

TLE

AktuellSource: CelesTrak SupGP

Epoche: Sep 14, 2026, 20:43 UTC

1 63721C 25087AA  26257.86368056  .00021546  00000+0  69299-3 0  2577
2 63721  53.1586  59.5306 0001073  81.0308 213.1642 15.31685998    13

Verfolge STARLINK-33774 in Echtzeit mit AllMySat

Download on the App Store